Time,TemperatureF,DewpointF,PressureIn,WindDirection,WindDirectionDegrees,WindSpeedMPH,WindSpeedGustMPH,Humidity,HourlyPrecipIn,Conditions,Clouds,dailyrainin,SoftwareType,DateUTC
2013-03-11 00:00:00,41.9,17.5,30.12,North,0,0.0,0.0,37,0.00,,---,0.00,VWS V14.00,2013-03-11 07:00:00,
2013-03-11 00:05:00,41.9,17.5,30.12,North,0,0.0,0.0,37,0.00,,---,0.00,VWS V14.00,2013-03-11 07:05:00,
2013-03-11 00:10:00,41.7,18.0,30.12,North,0,0.0,0.0,38,0.00,,---,0.00,VWS V14.00,2013-03-11 07:10:00,
2013-03-11 00:15:00,41.4,17.7,30.12,North,0,0.0,0.0,38,0.00,,---,0.00,VWS V14.00,2013-03-11 07:15:00,
2013-03-11 00:20:00,40.8,17.8,30.12,North,0,0.0,0.0,39,0.00,,---,0.00,VWS V14.00,2013-03-11 07:20:00,
2013-03-11 00:25:00,40.5,17.5,30.12,North,0,0.0,0.0,39,0.00,,---,0.00,VWS V14.00,2013-03-11 07:25:00,
2013-03-11 00:30:00,40.3,17.3,30.12,North,0,0.0,0.0,39,0.00,,---,0.00,VWS V14.00,2013-03-11 07:30:00,
2013-03-11 00:35:00,40.1,17.1,30.12,North,0,0.0,0.0,39,0.00,,---,0.00,VWS V14.00,2013-03-11 07:35:00,
2013-03-11 00:40:00,40.5,17.5,30.12,North,0,0.0,0.0,39,0.00,,---,0.00,VWS V14.00,2013-03-11 07:40:00,
2013-03-11 00:45:00,40.6,17.6,30.12,North,0,0.0,0.0,39,0.00,,---,0.00,VWS V14.00,2013-03-11 07:45:00,
2013-03-11 00:50:00,40.6,17.6,30.12,North,0,0.0,0.0,39,0.00,,---,0.00,VWS V14.00,2013-03-11 07:50:00,
2013-03-11 00:55:00,40.5,18.1,30.12,North,0,0.0,0.0,40,0.00,,---,0.00,VWS V14.00,2013-03-11 07:55:00,
2013-03-11 01:00:00,40.3,17.9,30.12,North,0,0.0,0.0,40,0.00,,---,0.00,VWS V14.00,2013-03-11 08:00:00,
2013-03-11 01:05:00,39.7,17.4,30.12,North,0,0.0,0.0,40,0.00,,---,0.00,VWS V14.00,2013-03-11 08:05:00,
2013-03-11 01:10:00,39.4,17.1,30.12,North,0,0.0,0.0,40,0.00,,---,0.00,VWS V14.00,2013-03-11 08:10:00,
2013-03-11 01:15:00,39.2,17.5,30.12,North,0,0.0,0.0,41,0.00,,---,0.00,VWS V14.00,2013-03-11 08:15:00,
2013-03-11 01:20:00,39.2,17.5,30.12,North,0,0.0,0.0,41,0.00,,---,0.00,VWS V14.00,2013-03-11 08:20:00,
2013-03-11 01:25:00,39.2,17.5,30.12,North,0,0.0,0.0,41,0.00,,---,0.00,VWS V14.00,2013-03-11 08:25:00,
2013-03-11 01:30:00,39.0,17.9,30.12,North,0,0.0,0.0,42,0.00,,---,0.00,VWS V14.00,2013-03-11 08:30:00,
2013-03-11 01:35:00,38.8,17.7,30.12,North,0,0.0,0.0,42,0.00,,---,0.00,VWS V14.00,2013-03-11 08:35:00,
2013-03-11 01:40:00,38.5,17.4,30.12,North,0,0.0,0.0,42,0.00,,---,0.00,VWS V14.00,2013-03-11 08:40:00,
2013-03-11 01:45:00,38.3,17.2,30.12,North,0,0.0,0.0,42,0.00,,---,0.00,VWS V14.00,2013-03-11 08:45:00,
2013-03-11 01:50:00,37.9,16.9,30.12,North,0,0.0,0.0,42,0.00,,---,0.00,VWS V14.00,2013-03-11 08:50:00,
2013-03-11 01:55:00,37.6,17.1,30.12,North,0,0.0,0.0,43,0.00,,---,0.00,VWS V14.00,2013-03-11 08:55:00,
2013-03-11 02:00:00,37.4,17.5,30.12,North,0,0.0,0.0,44,0.00,,---,0.00,VWS V14.00,2013-03-11 09:00:00,
2013-03-11 02:05:00,37.2,18.4,30.12,North,0,0.0,0.0,46,0.00,,---,0.00,VWS V14.00,2013-03-11 09:05:00,
2013-03-11 02:10:00,37.2,19.4,30.12,North,0,0.0,0.0,48,0.00,,---,0.00,VWS V14.00,2013-03-11 09:10:00,
2013-03-11 02:15:00,37.4,20.0,30.12,North,0,0.0,0.0,49,0.00,,---,0.00,VWS V14.00,2013-03-11 09:15:00,
2013-03-11 02:20:00,37.4,20.0,30.12,North,0,0.0,0.0,49,0.00,,---,0.00,VWS V14.00,2013-03-11 09:20:00,
2013-03-11 02:25:00,37.2,19.8,30.09,North,0,0.0,0.0,49,0.00,,---,0.00,VWS V14.00,2013-03-11 09:25:00,
2013-03-11 02:30:00,37.0,19.2,30.09,North,0,0.0,0.0,48,0.00,,---,0.00,VWS V14.00,2013-03-11 09:30:00,
2013-03-11 02:35:00,36.9,19.0,30.09,North,0,0.0,0.0,48,0.00,,---,0.00,VWS V14.00,2013-03-11 09:35:00,
2013-03-11 02:40:00,36.9,19.0,30.09,North,0,0.0,0.0,48,0.00,,---,0.00,VWS V14.00,2013-03-11 09:40:00,
2013-03-11 02:45:00,36.7,19.3,30.09,North,0,0.0,0.0,49,0.00,,---,0.00,VWS V14.00,2013-03-11 09:45:00,
2013-03-11 02:50:00,36.7,19.8,30.09,North,0,0.0,0.0,50,0.00,,---,0.00,VWS V14.00,2013-03-11 09:50:00,
2013-03-11 02:55:00,36.7,19.8,30.09,North,0,0.0,0.0,50,0.00,,---,0.00,VWS V14.00,2013-03-11 09:55:00,
2013-03-11 02:59:00,36.7,19.8,30.09,North,0,0.0,0.0,50,0.00,,---,0.00,VWS V14.00,2013-03-11 09:59:00,
2013-03-11 03:04:00,36.7,19.8,30.09,North,0,0.0,0.0,50,0.00,,---,0.00,VWS V14.00,2013-03-11 10:04:00,
2013-03-11 03:09:00,36.7,19.8,30.09,North,0,0.0,0.0,50,0.00,,---,0.00,VWS V14.00,2013-03-11 10:09:00,
2013-03-11 03:14:00,36.7,19.8,30.09,North,0,0.0,0.0,50,0.00,,---,0.00,VWS V14.00,2013-03-11 10:14:00,
2013-03-11 03:19:00,36.7,19.8,30.09,North,0,0.0,0.0,50,0.00,,---,0.00,VWS V14.00,2013-03-11 10:19:00,
2013-03-11 03:24:00,36.5,19.6,30.09,North,0,0.0,0.0,50,0.00,,---,0.00,VWS V14.00,2013-03-11 10:24:00,
2013-03-11 03:29:00,36.5,20.1,30.09,North,0,0.0,0.0,51,0.00,,---,0.00,VWS V14.00,2013-03-11 10:29:00,
2013-03-11 03:34:00,36.5,20.1,30.09,North,0,0.0,0.0,51,0.00,,---,0.00,VWS V14.00,2013-03-11 10:34:00,
2013-03-11 03:39:00,36.3,19.9,30.09,North,0,0.0,0.0,51,0.00,,---,0.00,VWS V14.00,2013-03-11 10:39:00,
2013-03-11 03:44:00,36.1,19.8,30.09,North,0,0.0,0.0,51,0.00,,---,0.00,VWS V14.00,2013-03-11 10:44:00,
2013-03-11 03:49:00,35.8,19.4,30.09,North,0,0.0,0.0,51,0.00,,---,0.00,VWS V14.00,2013-03-11 10:49:00,
2013-03-11 03:54:00,35.4,19.1,30.09,North,0,0.0,0.0,51,0.00,,---,0.00,VWS V14.00,2013-03-11 10:54:00,
2013-03-11 03:59:00,35.1,18.8,30.09,North,0,0.0,0.0,51,0.00,,---,0.00,VWS V14.00,2013-03-11 10:59:00,
2013-03-11 04:04:00,34.9,18.6,30.09,North,0,0.0,0.0,51,0.00,,---,0.00,VWS V14.00,2013-03-11 11:04:00,
2013-03-11 04:09:00,34.5,18.3,30.09,North,0,0.0,0.0,51,0.00,,---,0.00,VWS V14.00,2013-03-11 11:09:00,
2013-03-11 04:14:00,34.3,18.1,30.09,North,0,0.0,0.0,51,0.00,,---,0.00,VWS V14.00,2013-03-11 11:14:00,
2013-03-11 04:19:00,34.3,18.5,30.09,North,0,0.0,0.0,52,0.00,,---,0.00,VWS V14.00,2013-03-11 11:19:00,
2013-03-11 04:24:00,34.2,18.4,30.09,North,0,0.0,0.0,52,0.00,,---,0.00,VWS V14.00,2013-03-11 11:24:00,
2013-03-11 04:29:00,34.2,18.4,30.09,North,0,0.0,0.0,52,0.00,,---,0.00,VWS V14.00,2013-03-11 11:29:00,
2013-03-11 04:34:00,34.2,18.8,30.09,North,0,0.0,0.0,53,0.00,,---,0.00,VWS V14.00,2013-03-11 11:34:00,
2013-03-11 04:39:00,34.2,18.8,30.09,North,0,0.0,0.0,53,0.00,,---,0.00,VWS V14.00,2013-03-11 11:39:00,
2013-03-11 04:44:00,34.3,19.0,30.09,North,0,0.0,0.0,53,0.00,,---,0.00,VWS V14.00,2013-03-11 11:44:00,
2013-03-11 04:49:00,34.2,19.3,30.09,North,0,0.0,0.0,54,0.00,,---,0.00,VWS V14.00,2013-03-11 11:49:00,
2013-03-11 04:54:00,34.0,19.1,30.09,North,0,0.0,0.0,54,0.00,,---,0.00,VWS V14.00,2013-03-11 11:54:00,
2013-03-11 04:59:00,33.8,18.9,30.09,North,0,0.0,0.0,54,0.00,,---,0.00,VWS V14.00,2013-03-11 11:59:00,
2013-03-11 05:04:00,33.6,18.8,30.09,North,0,0.0,0.0,54,0.00,,---,0.00,VWS V14.00,2013-03-11 12:04:00,
2013-03-11 05:09:00,33.3,18.4,30.09,North,0,0.0,0.0,54,0.00,,---,0.00,VWS V14.00,2013-03-11 12:09:00,
2013-03-11 05:14:00,33.3,18.9,30.09,North,0,3.1,3.1,55,0.00,,---,0.00,VWS V14.00,2013-03-11 12:14:00,
2013-03-11 05:19:00,33.4,19.0,30.09,North,0,2.7,3.6,55,0.00,,---,0.00,VWS V14.00,2013-03-11 12:19:00,
2013-03-11 05:24:00,33.8,19.8,30.09,North,0,3.6,4.9,56,0.00,,---,0.00,VWS V14.00,2013-03-11 12:24:00,
2013-03-11 05:29:00,33.8,19.8,30.09,North,0,4.0,4.0,56,0.00,,---,0.00,VWS V14.00,2013-03-11 12:29:00,
2013-03-11 05:34:00,33.8,19.8,30.09,North,0,3.1,3.6,56,0.00,,---,0.00,VWS V14.00,2013-03-11 12:34:00,
2013-03-11 05:39:00,34.0,20.0,30.09,North,0,2.7,4.0,56,0.00,,---,0.00,VWS V14.00,2013-03-11 12:39:00,
2013-03-11 05:44:00,34.3,20.7,30.09,North,0,2.2,3.1,57,0.00,,---,0.00,VWS V14.00,2013-03-11 12:44:00,
2013-03-11 05:49:00,34.5,20.9,30.09,North,0,0.0,0.0,57,0.00,,---,0.00,VWS V14.00,2013-03-11 12:49:00,
2013-03-11 05:54:00,34.9,21.6,30.09,North,0,0.0,0.0,58,0.00,,---,0.00,VWS V14.00,2013-03-11 12:54:00,
2013-03-11 05:59:00,35.1,21.8,30.09,North,0,0.0,0.0,58,0.00,,---,0.00,VWS V14.00,2013-03-11 12:59:00,
2013-03-11 06:04:00,35.2,22.0,30.09,North,0,0.0,0.0,58,0.00,,---,0.00,VWS V14.00,2013-03-11 13:04:00,
2013-03-11 06:09:00,35.4,22.1,30.09,North,0,0.0,0.0,58,0.00,,---,0.00,VWS V14.00,2013-03-11 13:09:00,
2013-03-11 06:14:00,35.2,21.5,30.09,North,0,0.0,0.0,57,0.00,,---,0.00,VWS V14.00,2013-03-11 13:14:00,
2013-03-11 06:19:00,35.4,21.7,30.09,North,0,0.0,0.0,57,0.00,,---,0.00,VWS V14.00,2013-03-11 13:19:00,
2013-03-11 06:24:00,35.4,21.7,30.09,North,0,2.2,3.1,57,0.00,,---,0.00,VWS V14.00,2013-03-11 13:24:00,
2013-03-11 06:29:00,35.2,21.5,30.09,North,0,2.2,3.1,57,0.00,,---,0.00,VWS V14.00,2013-03-11 13:29:00,
2013-03-11 06:34:00,35.1,21.0,30.09,North,0,0.0,0.0,56,0.00,,---,0.00,VWS V14.00,2013-03-11 13:34:00,
2013-03-11 06:39:00,34.9,20.8,30.09,North,0,0.0,0.0,56,0.00,,---,0.00,VWS V14.00,2013-03-11 13:39:00,
2013-03-11 06:44:00,34.5,20.5,30.09,North,0,0.0,0.0,56,0.00,,---,0.00,VWS V14.00,2013-03-11 13:44:00,
2013-03-11 06:49:00,34.5,20.9,30.09,North,0,0.0,0.0,57,0.00,,---,0.00,VWS V14.00,2013-03-11 13:49:00,
2013-03-11 06:54:00,34.5,20.9,30.09,North,0,0.0,0.0,57,0.00,,---,0.00,VWS V14.00,2013-03-11 13:54:00,
2013-03-11 06:59:00,34.7,21.0,30.09,North,0,0.0,0.0,57,0.00,,---,0.00,VWS V14.00,2013-03-11 13:59:00,
2013-03-11 07:04:00,34.7,21.0,30.09,North,0,0.0,0.0,57,0.00,,---,0.00,VWS V14.00,2013-03-11 14:04:00,
2013-03-11 07:09:00,34.5,20.9,30.09,North,0,0.0,0.0,57,0.00,,---,0.00,VWS V14.00,2013-03-11 14:09:00,
2013-03-11 07:14:00,34.3,20.3,30.09,North,0,0.0,0.0,56,0.00,,---,0.00,VWS V14.00,2013-03-11 14:14:00,
2013-03-11 07:19:00,34.3,20.7,30.09,North,0,0.0,0.0,57,0.00,,---,0.00,VWS V14.00,2013-03-11 14:19:00,
2013-03-11 07:24:00,34.5,20.9,30.09,North,0,0.0,0.0,57,0.00,,---,0.00,VWS V14.00,2013-03-11 14:24:00,
2013-03-11 07:29:00,34.7,21.0,30.09,North,0,0.0,0.0,57,0.00,,---,0.00,VWS V14.00,2013-03-11 14:29:00,
2013-03-11 07:34:00,34.9,21.2,30.09,North,0,0.0,0.0,57,0.00,,---,0.00,VWS V14.00,2013-03-11 14:34:00,
2013-03-11 07:39:00,35.1,21.8,30.09,North,0,0.0,0.0,58,0.00,,---,0.00,VWS V14.00,2013-03-11 14:39:00,
2013-03-11 07:44:00,35.4,22.1,30.09,North,0,0.0,0.0,58,0.00,,---,0.00,VWS V14.00,2013-03-11 14:44:00,
2013-03-11 07:49:00,35.8,22.5,30.09,North,0,0.0,0.0,58,0.00,,---,0.00,VWS V14.00,2013-03-11 14:49:00,
2013-03-11 07:54:00,36.3,23.0,30.12,North,0,0.0,0.0,58,0.00,,---,0.00,VWS V14.00,2013-03-11 14:54:00,
2013-03-11 07:59:00,37.0,23.6,30.12,North,0,0.0,0.0,58,0.00,,---,0.00,VWS V14.00,2013-03-11 14:59:00,
2013-03-11 08:04:00,37.6,24.2,30.12,North,0,0.0,0.0,58,0.00,,---,0.00,VWS V14.00,2013-03-11 15:04:00,
2013-03-11 08:09:00,38.3,24.8,30.12,North,0,0.0,0.0,58,0.00,,---,0.00,VWS V14.00,2013-03-11 15:09:00,
2013-03-11 08:14:00,39.0,25.5,30.12,North,0,0.0,0.0,58,0.00,,---,0.00,VWS V14.00,2013-03-11 15:14:00,
2013-03-11 08:19:00,39.7,25.8,30.12,North,0,0.0,0.0,57,0.00,,---,0.00,VWS V14.00,2013-03-11 15:19:00,
2013-03-11 08:24:00,40.6,26.6,30.12,North,0,0.0,0.0,57,0.00,,---,0.00,VWS V14.00,2013-03-11 15:24:00,
2013-03-11 08:29:00,41.5,27.0,30.12,North,0,0.0,0.0,56,0.00,,---,0.00,VWS V14.00,2013-03-11 15:29:00,
2013-03-11 08:34:00,42.4,27.4,30.12,North,0,0.0,0.0,55,0.00,,---,0.00,VWS V14.00,2013-03-11 15:34:00,
2013-03-11 08:39:00,43.5,28.0,30.12,North,0,0.0,0.0,54,0.00,,---,0.00,VWS V14.00,2013-03-11 15:39:00,
2013-03-11 08:44:00,44.6,28.1,30.12,North,0,0.0,0.0,52,0.00,,---,0.00,VWS V14.00,2013-03-11 15:44:00,
2013-03-11 08:49:00,45.9,27.8,30.12,North,0,0.0,0.0,49,0.00,,---,0.00,VWS V14.00,2013-03-11 15:49:00,
2013-03-11 08:54:00,46.8,27.1,30.12,North,0,0.0,0.0,46,0.00,,---,0.00,VWS V14.00,2013-03-11 15:54:00,
2013-03-11 08:59:00,47.5,25.0,30.12,North,0,0.0,0.0,41,0.00,,---,0.00,VWS V14.00,2013-03-11 15:59:00,
2013-03-11 09:04:00,48.0,23.6,30.12,North,0,0.0,0.0,38,0.00,,---,0.00,VWS V14.00,2013-03-11 16:04:00,
2013-03-11 09:09:00,48.7,22.3,30.12,North,0,0.0,0.0,35,0.00,,---,0.00,VWS V14.00,2013-03-11 16:09:00,
2013-03-11 09:14:00,49.3,19.9,30.12,North,0,0.0,0.0,31,0.00,,---,0.00,VWS V14.00,2013-03-11 16:14:00,
2013-03-11 09:19:00,50.2,19.2,30.12,North,0,0.0,0.0,29,0.00,,---,0.00,VWS V14.00,2013-03-11 16:19:00,
2013-03-11 09:24:00,50.9,19.0,30.12,North,0,0.0,0.0,28,0.00,,---,0.00,VWS V14.00,2013-03-11 16:24:00,
2013-03-11 09:29:00,51.6,18.8,30.12,North,0,0.0,0.0,27,0.00,,---,0.00,VWS V14.00,2013-03-11 16:29:00,
2013-03-11 09:34:00,52.5,19.5,30.12,North,0,0.0,0.0,27,0.00,,---,0.00,VWS V14.00,2013-03-11 16:34:00,
2013-03-11 09:39:00,53.4,20.3,30.12,North,0,0.0,0.0,27,0.00,,---,0.00,VWS V14.00,2013-03-11 16:39:00,
2013-03-11 09:44:00,54.1,20.0,30.12,North,0,0.0,0.0,26,0.00,,---,0.00,VWS V14.00,2013-03-11 16:44:00,
2013-03-11 09:49:00,54.5,19.4,30.12,North,0,0.0,0.0,25,0.00,,---,0.00,VWS V14.00,2013-03-11 16:49:00,
2013-03-11 09:54:00,55.0,19.9,30.12,North,0,0.0,0.0,25,0.00,,---,0.00,VWS V14.00,2013-03-11 16:54:00,
2013-03-11 09:59:00,55.6,17.4,30.12,North,0,0.0,0.0,22,0.00,,---,0.00,VWS V14.00,2013-03-11 16:59:00,
2013-03-11 10:04:00,56.1,17.8,30.12,NNE,13,3.1,3.1,22,0.00,,---,0.00,VWS V14.00,2013-03-11 17:04:00,
2013-03-11 10:09:00,56.7,18.3,30.12,NNE,13,3.1,3.1,22,0.00,,---,0.00,VWS V14.00,2013-03-11 17:09:00,
2013-03-11 10:14:00,57.2,18.7,30.12,North,357,4.9,4.9,22,0.00,,---,0.00,VWS V14.00,2013-03-11 17:14:00,
2013-03-11 10:19:00,57.7,15.8,30.12,North,2,3.1,5.4,19,0.00,,---,0.00,VWS V14.00,2013-03-11 17:19:00,
2013-03-11 10:24:00,58.3,16.2,30.12,North,2,3.1,3.1,19,0.00,,---,0.00,VWS V14.00,2013-03-11 17:24:00,
2013-03-11 10:29:00,58.8,16.7,30.12,North,2,3.1,3.1,19,0.00,,---,0.00,VWS V14.00,2013-03-11 17:29:00,
2013-03-11 10:34:00,59.2,17.0,30.12,North,353,3.6,3.6,19,0.00,,---,0.00,VWS V14.00,2013-03-11 17:34:00,
2013-03-11 10:39:00,59.7,17.4,30.12,North,5,4.0,4.0,19,0.00,,---,0.00,VWS V14.00,2013-03-11 17:39:00,
2013-03-11 10:44:00,60.1,17.7,30.12,NE,43,2.7,2.7,19,0.00,,---,0.00,VWS V14.00,2013-03-11 17:44:00,
2013-03-11 10:49:00,60.6,18.2,30.12,NE,34,3.6,3.6,19,0.00,,---,0.00,VWS V14.00,2013-03-11 17:49:00,
2013-03-11 10:54:00,61.2,18.6,30.09,NNE,18,3.6,3.6,19,0.00,,---,0.00,VWS V14.00,2013-03-11 17:54:00,
2013-03-11 10:59:00,61.7,19.0,30.09,NNE,30,5.8,5.8,19,0.00,,---,0.00,VWS V14.00,2013-03-11 17:59:00,
2013-03-11 11:04:00,62.1,15.4,30.09,North,357,3.1,3.1,16,0.00,,---,0.00,VWS V14.00,2013-03-11 18:04:00,
2013-03-11 11:09:00,62.6,15.8,30.09,NE,36,3.6,3.6,16,0.00,,---,0.00,VWS V14.00,2013-03-11 18:09:00,
2013-03-11 11:14:00,63.0,16.1,30.09,NNE,15,3.6,3.6,16,0.00,,---,0.00,VWS V14.00,2013-03-11 18:14:00,
2013-03-11 11:19:00,63.3,16.4,30.09,NNE,15,3.6,3.6,16,0.00,,---,0.00,VWS V14.00,2013-03-11 18:19:00,
2013-03-11 11:24:00,64.0,17.0,30.09,NNE,15,3.6,3.6,16,0.00,,---,0.00,VWS V14.00,2013-03-11 18:24:00,
2013-03-11 11:29:00,64.2,17.1,30.09,North,11,8.1,8.1,16,0.00,,---,0.00,VWS V14.00,2013-03-11 18:29:00,
2013-03-11 11:34:00,64.4,15.8,30.09,NNE,15,5.4,5.4,15,0.00,,---,0.00,VWS V14.00,2013-03-11 18:34:00,
2013-03-11 11:39:00,64.8,16.1,30.09,North,357,6.3,6.3,15,0.00,,---,0.00,VWS V14.00,2013-03-11 18:39:00,
2013-03-11 11:44:00,65.3,16.5,30.09,North,7,7.6,7.6,15,0.00,,---,0.00,VWS V14.00,2013-03-11 18:44:00,
2013-03-11 11:49:00,65.7,16.8,30.09,NNE,14,3.6,3.6,15,0.00,,---,0.00,VWS V14.00,2013-03-11 18:49:00,
2013-03-11 11:54:00,66.0,17.1,30.09,NE,35,3.1,3.1,15,0.00,,---,0.00,VWS V14.00,2013-03-11 18:54:00,
2013-03-11 11:59:00,66.4,17.4,30.09,NNE,22,3.1,3.1,15,0.00,,---,0.00,VWS V14.00,2013-03-11 18:59:00,
2013-03-11 12:04:00,66.6,17.5,30.09,NNE,19,3.1,3.1,15,0.00,,---,0.00,VWS V14.00,2013-03-11 19:04:00,
2013-03-11 12:09:00,66.7,17.6,30.09,North,11,4.0,4.0,15,0.00,,---,0.00,VWS V14.00,2013-03-11 19:09:00,
2013-03-11 12:14:00,67.1,17.9,30.09,North,11,4.0,4.0,15,0.00,,---,0.00,VWS V14.00,2013-03-11 19:14:00,
2013-03-11 12:19:00,67.1,17.9,30.09,NNE,18,3.1,4.0,15,0.00,,---,0.00,VWS V14.00,2013-03-11 19:19:00,
2013-03-11 12:24:00,67.3,18.1,30.09,NNE,18,3.1,3.1,15,0.00,,---,0.00,VWS V14.00,2013-03-11 19:24:00,
2013-03-11 12:29:00,67.3,18.1,30.09,NNE,18,3.1,3.1,15,0.00,,---,0.00,VWS V14.00,2013-03-11 19:29:00,
2013-03-11 12:34:00,67.5,18.2,30.09,NNE,24,3.6,3.6,15,0.00,,---,0.00,VWS V14.00,2013-03-11 19:34:00,
2013-03-11 12:39:00,67.8,18.5,30.06,North,357,4.5,4.5,15,0.00,,---,0.00,VWS V14.00,2013-03-11 19:39:00,
2013-03-11 12:44:00,68.2,18.8,30.06,North,357,4.5,4.5,15,0.00,,---,0.00,VWS V14.00,2013-03-11 19:44:00,
2013-03-11 12:49:00,68.7,19.2,30.06,NNE,24,4.0,4.5,15,0.00,,---,0.00,VWS V14.00,2013-03-11 19:49:00,
2013-03-11 12:54:00,69.3,19.7,30.06,NNE,24,4.0,4.0,15,0.00,,---,0.00,VWS V14.00,2013-03-11 19:54:00,
2013-03-11 12:59:00,69.6,20.0,30.06,NNE,24,4.0,4.0,15,0.00,,---,0.00,VWS V14.00,2013-03-11 19:59:00,
2013-03-11 13:04:00,70.2,18.8,30.06,North,10,5.4,5.4,14,0.00,,---,0.00,VWS V14.00,2013-03-11 20:04:00,
2013-03-11 13:09:00,70.9,19.4,30.06,NNE,20,7.6,7.6,14,0.00,,---,0.00,VWS V14.00,2013-03-11 20:09:00,
2013-03-11 13:14:00,71.2,19.6,30.06,NNE,20,7.6,7.6,14,0.00,,---,0.00,VWS V14.00,2013-03-11 20:14:00,
2013-03-11 13:19:00,71.6,19.9,30.06,North,11,3.6,3.6,14,0.00,,---,0.00,VWS V14.00,2013-03-11 20:19:00,
2013-03-11 13:24:00,72.1,20.4,30.06,North,6,7.6,7.6,14,0.00,,---,0.00,VWS V14.00,2013-03-11 20:24:00,
2013-03-11 13:29:00,72.1,20.4,30.06,North,6,7.6,7.6,14,0.00,,---,0.00,VWS V14.00,2013-03-11 20:29:00,
2013-03-11 13:34:00,72.5,20.6,30.06,North,6,7.6,7.6,14,0.00,,---,0.00,VWS V14.00,2013-03-11 20:34:00,
2013-03-11 13:39:00,72.9,20.9,30.03,North,6,7.6,7.6,14,0.00,,---,0.00,VWS V14.00,2013-03-11 20:39:00,
2013-03-11 13:44:00,72.9,20.9,30.03,North,6,7.6,7.6,14,0.00,,---,0.00,VWS V14.00,2013-03-11 20:44:00,
2013-03-11 13:49:00,73.0,21.1,30.03,North,6,7.6,7.6,14,0.00,,---,0.00,VWS V14.00,2013-03-11 20:49:00,
2013-03-11 13:54:00,73.2,21.2,30.03,North,6,7.6,7.6,14,0.00,,---,0.00,VWS V14.00,2013-03-11 20:54:00,
2013-03-11 13:59:00,73.2,21.2,30.03,North,6,7.6,7.6,14,0.00,,---,0.00,VWS V14.00,2013-03-11 20:59:00,
2013-03-11 14:04:00,73.4,19.6,30.03,North,6,7.6,7.6,13,0.00,,---,0.00,VWS V14.00,2013-03-11 21:04:00,
2013-03-11 14:09:00,73.6,19.8,30.03,North,357,5.8,5.8,13,0.00,,---,0.00,VWS V14.00,2013-03-11 21:09:00,
2013-03-11 14:14:00,73.8,19.9,30.03,North,357,5.8,5.8,13,0.00,,---,0.00,VWS V14.00,2013-03-11 21:14:00,
2013-03-11 14:19:00,74.1,20.2,30.03,North,353,5.4,5.4,13,0.00,,---,0.00,VWS V14.00,2013-03-11 21:19:00,
2013-03-11 14:24:00,74.3,20.3,30.03,North,353,5.4,5.4,13,0.00,,---,0.00,VWS V14.00,2013-03-11 21:24:00,
2013-03-11 14:29:00,74.7,20.6,30.03,North,353,5.4,5.4,13,0.00,,---,0.00,VWS V14.00,2013-03-11 21:29:00,
2013-03-11 14:34:00,74.8,20.7,30.03,North,357,3.6,3.6,13,0.00,,---,0.00,VWS V14.00,2013-03-11 21:34:00,
2013-03-11 14:39:00,74.8,20.7,30.03,NE,36,3.6,3.6,13,0.00,,---,0.00,VWS V14.00,2013-03-11 21:39:00,
2013-03-11 14:44:00,75.0,20.9,30.03,North,1,4.0,4.0,13,0.00,,---,0.00,VWS V14.00,2013-03-11 21:44:00,
2013-03-11 14:49:00,75.7,21.5,30.03,NW,316,3.6,3.6,13,0.00,,---,0.00,VWS V14.00,2013-03-11 21:49:00,
2013-03-11 14:54:00,76.1,21.7,30.01,NNW,333,3.1,3.1,13,0.00,,---,0.00,VWS V14.00,2013-03-11 21:54:00,
2013-03-11 14:59:00,76.6,22.1,30.01,NNW,337,3.6,3.6,13,0.00,,---,0.00,VWS V14.00,2013-03-11 21:59:00,
2013-03-11 15:04:00,77.0,22.4,30.01,North,353,4.0,4.0,13,0.00,,---,0.00,VWS V14.00,2013-03-11 22:04:00,
2013-03-11 15:09:00,76.3,21.9,30.01,West,262,2.2,4.9,13,0.00,,---,0.00,VWS V14.00,2013-03-11 22:09:00,
2013-03-11 15:14:00,75.4,21.2,30.01,West,262,0.0,0.0,13,0.00,,---,0.00,VWS V14.00,2013-03-11 22:14:00,
2013-03-11 15:19:00,75.2,21.0,30.01,West,262,0.0,0.0,13,0.00,,---,0.00,VWS V14.00,2013-03-11 22:19:00,
2013-03-11 15:24:00,74.7,20.6,30.01,NW,304,0.0,0.0,13,0.00,,---,0.00,VWS V14.00,2013-03-11 22:24:00,
2013-03-11 15:29:00,74.5,20.5,30.01,NW,304,0.0,0.0,13,0.00,,---,0.00,VWS V14.00,2013-03-11 22:29:00,
2013-03-11 15:34:00,75.4,21.2,30.01,NW,304,3.1,3.1,13,0.00,,---,0.00,VWS V14.00,2013-03-11 22:34:00,
2013-03-11 15:39:00,76.1,21.7,30.01,NNW,339,3.6,3.6,13,0.00,,---,0.00,VWS V14.00,2013-03-11 22:39:00,
2013-03-11 15:44:00,75.9,21.6,30.01,NNW,339,2.2,2.2,13,0.00,,---,0.00,VWS V14.00,2013-03-11 22:44:00,
2013-03-11 15:49:00,74.7,20.6,30.01,NNW,339,2.2,2.2,13,0.00,,---,0.00,VWS V14.00,2013-03-11 22:49:00,
2013-03-11 15:54:00,74.5,20.5,30.01,NNW,339,2.2,2.2,13,0.00,,---,0.00,VWS V14.00,2013-03-11 22:54:00,
2013-03-11 15:59:00,74.3,20.3,30.01,NNW,339,2.2,2.2,13,0.00,,---,0.00,VWS V14.00,2013-03-11 22:59:00,
2013-03-11 16:04:00,73.9,20.0,30.01,ESE,118,2.2,2.2,13,0.00,,---,0.00,VWS V14.00,2013-03-11 23:04:00,
2013-03-11 16:09:00,74.5,20.5,30.01,ESE,118,2.2,2.2,13,0.00,,---,0.00,VWS V14.00,2013-03-11 23:09:00,
2013-03-11 16:14:00,74.7,20.6,30.01,ESE,118,2.2,2.2,13,0.00,,---,0.00,VWS V14.00,2013-03-11 23:14:00,
2013-03-11 16:19:00,75.2,21.0,30.01,North,10,7.6,7.6,13,0.00,,---,0.00,VWS V14.00,2013-03-11 23:19:00,
2013-03-11 16:24:00,76.3,21.9,30.01,North,357,5.8,5.8,13,0.00,,---,0.00,VWS V14.00,2013-03-11 23:24:00,
2013-03-11 16:29:00,76.5,22.0,30.01,North,357,5.8,5.8,13,0.00,,---,0.00,VWS V14.00,2013-03-11 23:29:00,
2013-03-11 16:34:00,76.3,21.9,30.01,North,7,3.1,3.1,13,0.00,,---,0.00,VWS V14.00,2013-03-11 23:34:00,
2013-03-11 16:39:00,75.9,21.6,30.01,North,7,3.1,3.1,13,0.00,,---,0.00,VWS V14.00,2013-03-11 23:39:00,
2013-03-11 16:44:00,75.7,21.5,30.01,NNE,12,6.3,6.3,13,0.00,,---,0.00,VWS V14.00,2013-03-11 23:44:00,
2013-03-11 16:49:00,75.7,21.5,30.01,North,353,3.6,3.6,13,0.00,,---,0.00,VWS V14.00,2013-03-11 23:49:00,
2013-03-11 16:54:00,75.9,21.6,30.01,ENE,76,3.1,3.1,13,0.00,,---,0.00,VWS V14.00,2013-03-11 23:54:00,
2013-03-11 16:59:00,76.1,21.7,30.01,ENE,76,3.1,3.1,13,0.00,,---,0.00,VWS V14.00,2013-03-11 23:59:00,
2013-03-11 17:04:00,75.7,21.5,30.01,NNE,17,3.1,3.1,13,0.00,,---,0.00,VWS V14.00,2013-03-12 00:04:00,
2013-03-11 17:09:00,75.4,21.2,29.98,NE,37,4.0,4.0,13,0.00,,---,0.00,VWS V14.00,2013-03-12 00:09:00,
2013-03-11 17:14:00,75.2,21.0,29.98,NE,34,3.1,3.1,13,0.00,,---,0.00,VWS V14.00,2013-03-12 00:14:00,
2013-03-11 17:19:00,75.4,21.2,29.98,NNE,15,3.6,3.6,13,0.00,,---,0.00,VWS V14.00,2013-03-12 00:19:00,
2013-03-11 17:24:00,75.6,21.3,29.98,NE,37,2.7,2.7,13,0.00,,---,0.00,VWS V14.00,2013-03-12 00:24:00,
2013-03-11 17:29:00,75.6,21.3,29.98,NE,35,2.7,2.7,13,0.00,,---,0.00,VWS V14.00,2013-03-12 00:29:00,
2013-03-11 17:34:00,75.7,21.5,29.98,NNE,18,3.6,3.6,13,0.00,,---,0.00,VWS V14.00,2013-03-12 00:34:00,
2013-03-11 17:39:00,75.7,21.5,29.98,NE,38,2.7,2.7,13,0.00,,---,0.00,VWS V14.00,2013-03-12 00:39:00,
2013-03-11 17:44:00,75.0,20.9,29.98,North,10,5.4,5.4,13,0.00,,---,0.00,VWS V14.00,2013-03-12 00:44:00,
2013-03-11 17:49:00,74.1,20.2,29.98,NNE,27,3.6,3.6,13,0.00,,---,0.00,VWS V14.00,2013-03-12 00:49:00,
2013-03-11 17:54:00,73.8,19.9,29.98,NE,37,2.7,2.7,13,0.00,,---,0.00,VWS V14.00,2013-03-12 00:54:00,
2013-03-11 17:59:00,73.2,21.2,29.98,NE,34,4.0,4.0,14,0.00,,---,0.00,VWS V14.00,2013-03-12 00:59:00,
2013-03-11 18:04:00,72.5,20.6,29.98,North,353,6.3,6.3,14,0.00,,---,0.00,VWS V14.00,2013-03-12 01:04:00,
2013-03-11 18:09:00,71.6,19.9,29.98,NNE,16,4.5,4.5,14,0.00,,---,0.00,VWS V14.00,2013-03-12 01:09:00,
2013-03-11 18:14:00,70.7,19.2,29.98,NNE,16,4.5,4.5,14,0.00,,---,0.00,VWS V14.00,2013-03-12 01:14:00,
2013-03-11 18:19:00,69.8,18.5,29.98,NNE,16,4.5,4.5,14,0.00,,---,0.00,VWS V14.00,2013-03-12 01:19:00,
2013-03-11 18:24:00,69.1,19.5,30.01,North,9,6.3,6.3,15,0.00,,---,0.00,VWS V14.00,2013-03-12 01:24:00,
2013-03-11 18:29:00,68.0,18.7,30.01,NNE,17,4.9,4.9,15,0.00,,---,0.00,VWS V14.00,2013-03-12 01:29:00,
2013-03-11 18:34:00,66.7,17.6,30.01,NNE,20,3.1,3.6,15,0.00,,---,0.00,VWS V14.00,2013-03-12 01:34:00,
2013-03-11 18:39:00,65.7,16.8,29.98,NNE,26,2.7,2.7,15,0.00,,---,0.00,VWS V14.00,2013-03-12 01:39:00,
2013-03-11 18:44:00,64.8,16.1,29.98,NNE,26,2.7,2.7,15,0.00,,---,0.00,VWS V14.00,2013-03-12 01:44:00,
2013-03-11 18:49:00,63.9,16.8,29.98,NNE,33,2.2,3.1,16,0.00,,---,0.00,VWS V14.00,2013-03-12 01:49:00,
2013-03-11 18:54:00,63.1,16.2,30.01,NE,35,3.6,3.6,16,0.00,,---,0.00,VWS V14.00,2013-03-12 01:54:00,
2013-03-11 18:59:00,62.6,15.8,30.01,NE,39,2.7,2.7,16,0.00,,---,0.00,VWS V14.00,2013-03-12 01:59:00,
2013-03-11 19:04:00,62.1,15.4,30.01,NE,39,0.0,0.0,16,0.00,,---,0.00,VWS V14.00,2013-03-12 02:04:00,
2013-03-11 19:09:00,61.5,14.9,30.01,NE,39,2.2,2.2,16,0.00,,---,0.00,VWS V14.00,2013-03-12 02:09:00,
2013-03-11 19:14:00,61.0,14.5,30.01,NE,39,0.0,3.1,16,0.00,,---,0.00,VWS V14.00,2013-03-12 02:14:00,
2013-03-11 19:19:00,60.6,15.6,30.01,NE,39,0.0,0.0,17,0.00,,---,0.00,VWS V14.00,2013-03-12 02:19:00,
2013-03-11 19:24:00,59.9,15.0,30.01,NE,40,2.2,2.2,17,0.00,,---,0.00,VWS V14.00,2013-03-12 02:24:00,
2013-03-11 19:29:00,59.2,14.4,30.01,NE,40,2.7,2.7,17,0.00,,---,0.00,VWS V14.00,2013-03-12 02:29:00,
2013-03-11 19:34:00,58.5,13.8,30.01,NE,40,0.0,0.0,17,0.00,,---,0.00,VWS V14.00,2013-03-12 02:34:00,
2013-03-11 19:39:00,57.9,13.4,30.01,NE,40,0.0,0.0,17,0.00,,---,0.00,VWS V14.00,2013-03-12 02:39:00,
2013-03-11 19:44:00,57.6,13.1,30.01,NE,40,0.0,0.0,17,0.00,,---,0.00,VWS V14.00,2013-03-12 02:44:00,
2013-03-11 19:49:00,57.4,12.9,30.01,NE,40,0.0,0.0,17,0.00,,---,0.00,VWS V14.00,2013-03-12 02:49:00,
2013-03-11 19:54:00,57.0,12.7,30.01,NE,40,0.0,0.0,17,0.00,,---,0.00,VWS V14.00,2013-03-12 02:54:00,
2013-03-11 19:59:00,56.7,12.4,30.01,NE,40,0.0,0.0,17,0.00,,---,0.00,VWS V14.00,2013-03-12 02:59:00,
2013-03-11 20:04:00,56.1,11.9,30.01,NE,40,0.0,0.0,17,0.00,,---,0.00,VWS V14.00,2013-03-12 03:04:00,
2013-03-11 20:09:00,55.8,11.6,30.01,NE,40,0.0,0.0,17,0.00,,---,0.00,VWS V14.00,2013-03-12 03:09:00,
2013-03-11 20:14:00,55.4,11.3,30.01,NE,40,0.0,0.0,17,0.00,,---,0.00,VWS V14.00,2013-03-12 03:14:00,
2013-03-11 20:19:00,54.9,12.2,30.01,NE,40,0.0,0.0,18,0.00,,---,0.00,VWS V14.00,2013-03-12 03:19:00,
2013-03-11 20:24:00,54.5,11.9,30.01,NE,40,0.0,0.0,18,0.00,,---,0.00,VWS V14.00,2013-03-12 03:24:00,
2013-03-11 20:29:00,53.8,11.3,30.01,NE,40,0.0,0.0,18,0.00,,---,0.00,VWS V14.00,2013-03-12 03:29:00,
2013-03-11 20:34:00,53.4,11.0,30.01,NE,40,0.0,0.0,18,0.00,,---,0.00,VWS V14.00,2013-03-12 03:34:00,
2013-03-11 20:39:00,53.1,10.7,30.01,NE,40,0.0,0.0,18,0.00,,---,0.00,VWS V14.00,2013-03-12 03:39:00,
2013-03-11 20:44:00,52.7,10.4,30.01,NE,40,0.0,0.0,18,0.00,,---,0.00,VWS V14.00,2013-03-12 03:44:00,
2013-03-11 20:49:00,52.2,10.0,30.01,NE,40,0.0,0.0,18,0.00,,---,0.00,VWS V14.00,2013-03-12 03:49:00,
2013-03-11 20:54:00,51.6,10.7,30.01,NE,40,0.0,0.0,19,0.00,,---,0.00,VWS V14.00,2013-03-12 03:54:00,
2013-03-11 20:59:00,51.4,10.6,30.01,NE,40,0.0,0.0,19,0.00,,---,0.00,VWS V14.00,2013-03-12 03:59:00,
2013-03-11 21:00:00,51.4,10.6,30.01,NE,40,0.0,0.0,19,0.00,,---,0.00,VWS V14.00,2013-03-12 04:00:00,
2013-03-11 21:05:00,51.1,10.3,30.01,NE,40,0.0,0.0,19,0.00,,---,0.00,VWS V14.00,2013-03-12 04:05:00,
2013-03-11 21:10:00,50.5,9.8,30.01,NE,40,0.0,0.0,19,0.00,,---,0.00,VWS V14.00,2013-03-12 04:10:00,
2013-03-11 21:15:00,50.5,9.8,30.01,NE,40,0.0,0.0,19,0.00,,---,0.00,VWS V14.00,2013-03-12 04:15:00,
2013-03-11 21:20:00,50.5,9.8,30.01,NE,40,0.0,0.0,19,0.00,,---,0.00,VWS V14.00,2013-03-12 04:20:00,
2013-03-11 21:25:00,50.0,9.4,30.03,NE,40,0.0,0.0,19,0.00,,---,0.00,VWS V14.00,2013-03-12 04:25:00,
2013-03-11 21:30:00,49.6,9.1,30.03,NE,40,0.0,0.0,19,0.00,,---,0.00,VWS V14.00,2013-03-12 04:30:00,
2013-03-11 21:35:00,49.5,8.9,30.03,NE,40,0.0,0.0,19,0.00,,---,0.00,VWS V14.00,2013-03-12 04:35:00,
2013-03-11 21:40:00,49.3,8.8,30.03,NE,40,0.0,0.0,19,0.00,,---,0.00,VWS V14.00,2013-03-12 04:40:00,
2013-03-11 21:45:00,49.1,8.6,30.03,NE,40,0.0,0.0,19,0.00,,---,0.00,VWS V14.00,2013-03-12 04:45:00,
2013-03-11 21:50:00,48.9,8.5,30.03,NE,40,0.0,0.0,19,0.00,,---,0.00,VWS V14.00,2013-03-12 04:50:00,
2013-03-11 21:55:00,48.6,8.2,30.03,NE,40,0.0,0.0,19,0.00,,---,0.00,VWS V14.00,2013-03-12 04:55:00,
2013-03-11 22:00:00,48.7,8.3,30.03,NE,40,0.0,0.0,19,0.00,,---,0.00,VWS V14.00,2013-03-12 05:00:00,
2013-03-11 22:05:00,48.6,10.4,30.03,NE,40,0.0,0.0,21,0.00,,---,0.00,VWS V14.00,2013-03-12 05:05:00,
2013-03-11 22:10:00,48.4,10.3,30.03,NE,40,0.0,0.0,21,0.00,,---,0.00,VWS V14.00,2013-03-12 05:10:00,
2013-03-11 22:15:00,48.4,10.3,30.03,NE,40,0.0,0.0,21,0.00,,---,0.00,VWS V14.00,2013-03-12 05:15:00,
2013-03-11 22:20:00,48.2,10.1,30.03,NE,40,0.0,0.0,21,0.00,,---,0.00,VWS V14.00,2013-03-12 05:20:00,
2013-03-11 22:25:00,48.2,10.1,30.03,NE,40,0.0,0.0,21,0.00,,---,0.00,VWS V14.00,2013-03-12 05:25:00,
2013-03-11 22:30:00,48.0,11.0,30.03,NE,40,0.0,0.0,22,0.00,,---,0.00,VWS V14.00,2013-03-12 05:30:00,
2013-03-11 22:35:00,47.8,10.9,30.03,NE,40,0.0,0.0,22,0.00,,---,0.00,VWS V14.00,2013-03-12 05:35:00,
2013-03-11 22:40:00,47.7,10.7,30.03,NE,40,0.0,0.0,22,0.00,,---,0.00,VWS V14.00,2013-03-12 05:40:00,
2013-03-11 22:45:00,47.5,10.6,30.03,NE,40,0.0,0.0,22,0.00,,---,0.00,VWS V14.00,2013-03-12 05:45:00,
2013-03-11 22:50:00,47.3,10.4,30.03,NE,40,0.0,0.0,22,0.00,,---,0.00,VWS V14.00,2013-03-12 05:50:00,
2013-03-11 22:55:00,47.1,10.2,30.03,NE,40,0.0,0.0,22,0.00,,---,0.00,VWS V14.00,2013-03-12 05:55:00,
2013-03-11 23:00:00,46.9,10.1,30.03,NE,40,0.0,0.0,22,0.00,,---,0.00,VWS V14.00,2013-03-12 06:00:00,
2013-03-11 23:05:00,46.8,11.9,30.03,NE,40,0.0,0.0,24,0.00,,---,0.00,VWS V14.00,2013-03-12 06:05:00,
2013-03-11 23:10:00,46.6,11.7,30.03,NE,40,0.0,0.0,24,0.00,,---,0.00,VWS V14.00,2013-03-12 06:10:00,
2013-03-11 23:15:00,46.4,11.6,30.03,NE,40,0.0,0.0,24,0.00,,---,0.00,VWS V14.00,2013-03-12 06:15:00,
2013-03-11 23:20:00,46.0,12.2,30.03,NE,40,0.0,0.0,25,0.00,,---,0.00,VWS V14.00,2013-03-12 06:20:00,
2013-03-11 23:25:00,46.0,12.2,30.03,NE,40,2.7,2.7,25,0.00,,---,0.00,VWS V14.00,2013-03-12 06:25:00,
2013-03-11 23:30:00,46.0,12.2,30.03,NE,40,0.0,0.0,25,0.00,,---,0.00,VWS V14.00,2013-03-12 06:30:00,
2013-03-11 23:35:00,45.9,12.0,30.03,NE,40,0.0,0.0,25,0.00,,---,0.00,VWS V14.00,2013-03-12 06:35:00,
2013-03-11 23:40:00,45.7,11.9,30.03,NE,40,0.0,0.0,25,0.00,,---,0.00,VWS V14.00,2013-03-12 06:40:00,
2013-03-11 23:45:00,45.7,13.6,30.03,NE,40,0.0,0.0,27,0.00,,---,0.00,VWS V14.00,2013-03-12 06:45:00,
2013-03-11 23:50:00,45.1,13.2,30.03,NE,40,0.0,0.0,27,0.00,,---,0.00,VWS V14.00,2013-03-12 06:50:00,
2013-03-11 23:55:00,44.6,13.5,30.03,NE,40,0.0,0.0,28,0.00,,---,0.00,VWS V14.00,2013-03-12 06:55:00,